This is the latest recevied weather packets stored in our database for station/object SR8NGO-1. If no packets are shown the sender has not sent any weather packets the latest 1 day(s).
| Time | Temp. | Humidity | Pressure | Rain* | Wind** | Luminosity | Snow |
|---|---|---|---|---|---|---|---|
| 1777965647 | 26.11° C | 40% | 1001.4 hPa | 137.92 mm | 4.92 m/s, 189° | - | - |
| 1777965407 | 26.11° C | 41% | 1001.5 hPa | 137.92 mm | 4.47 m/s, 211° | - | - |
| 1777964687 | 25° C | 43% | 1001.5 hPa | 137.92 mm | 4.02 m/s, 183° | - | - |
| 1777964447 | 26.11° C | 44% | 1001.5 hPa | 137.92 mm | 4.92 m/s, 201° | - | - |
| 1777964207 | 25° C | 44% | 1001.5 hPa | 137.92 mm | 4.02 m/s, 200° | - | - |
| 1777963967 | 25° C | 44% | 1001.5 hPa | 137.92 mm | 2.24 m/s, 179° | - | - |
| 1777963727 | 23.89° C | 44% | 1001.6 hPa | 137.92 mm | 4.47 m/s, 179° | - | - |
| 1777963246 | 23.89° C | 44% | 1001.6 hPa | 137.92 mm | 3.58 m/s, 190° | - | - |
| 1777963007 | 22.78° C | 44% | 1001.6 hPa | 137.92 mm | 3.13 m/s, 177° | - | - |
| 1777962767 | 23.89° C | 43% | 1001.6 hPa | 137.92 mm | 4.02 m/s, 190° | - | - |
| 1777962527 | 22.78° C | 43% | 1001.6 hPa | 137.92 mm | 3.58 m/s, 183° | - | - |
| 1777962287 | 22.22° C | 43% | 1001.6 hPa | 137.92 mm | 3.58 m/s, 213° | - | - |
| 1777962047 | 22.78° C | 43% | 1001.6 hPa | 137.92 mm | 3.13 m/s, 162° | - | - |
| 1777961567 | 21.11° C | 43% | 1001.6 hPa | 137.92 mm | 4.92 m/s, 211° | - | - |
| 1777961328 | 20° C | 43% | 1001.6 hPa | 137.92 mm | 5.81 m/s, 179° | - | - |
| 1777961087 | 21.11° C | 43% | 1001.6 hPa | 137.92 mm | 4.02 m/s, 217° | - | - |
| 1777960849 | 21.11° C | 44% | 1001.6 hPa | 137.92 mm | 6.71 m/s, 151° | - | - |
| 1777960606 | 21.11° C | 45% | 1001.7 hPa | 137.92 mm | 3.58 m/s, 200° | - | - |
| 1777960367 | 21.11° C | 45% | 1001.7 hPa | 137.92 mm | 4.47 m/s, 183° | - | - |
| 1777960127 | 20° C | 45% | 1001.7 hPa | 137.92 mm | 5.81 m/s, 166° | - | - |
| 1777959887 | 21.11° C | 46% | 1001.7 hPa | 137.92 mm | 4.02 m/s, 177° | - | - |
| 1777959647 | 18.89° C | 46% | 1001.7 hPa | 137.92 mm | 5.36 m/s, 177° | - | - |
| 1777959407 | 18.89° C | 46% | 1001.7 hPa | 137.92 mm | 6.26 m/s, 194° | - | - |
| 1777959167 | 18.89° C | 46% | 1001.7 hPa | 137.92 mm | 4.02 m/s, 173° | - | - |
| 1777958926 | 18.89° C | 47% | 1001.7 hPa | 137.92 mm | 4.92 m/s, 207° | - | - |
* Rain latest hour (hover to see other rain measurements)
** Current wind speed in m/s (hover to see current wind gust speed)